This demonstration page uses our WeatherBlox Daily Observations layout. Learn more.

Hourly Observations for July 24, 2017

Temp ( °F °C ) Dew Point ( °F °C ) Humidity (%) Winds ( mph kmh ) Pressure ( in mb ) Visibility ( mi km ) Precip ( " mm )
12:54 am 00:54 Clear 66 18.9 62 16.7 87 87 N 6 9 29.98 1015 10 16.0934 0 0
1:54 am 01:54 Clear 69 20.6 62 16.7 78 78 Calm 29.98 1015 10 16.0934 0 0
2:54 am 02:54 Clear 66 18.9 61 16.1 84 84 NNE 5 7 29.98 1015 10 16.0934 0 0
3:54 am 03:54 Clear 66 18.9 61 16.1 84 84 Calm 29.98 1015 10 16.0934 0 0
4:54 am 04:54 Clear 66 18.9 61 16.1 84 84 ENE 6 9 29.98 1015 10 16.0934 0 0
5:54 am 05:54 Clear 62 16.7 60 15.6 93 93 NNE 6 9 30 1016 10 16.0934 0 0
6:54 am 06:54 Sunny 63 17.2 60 15.6 90 90 Calm 30.01 1016 10 16.0934 0 0
7:54 am 07:54 Sunny 68 20 62 16.7 81 81 E 5 7 30.01 1016 10 16.0934 0 0
8:54 am 08:54 Sunny 72 22.2 62 16.7 71 71 SE 8 13 30.02 1017 10 16.0934 0 0
9:54 am 09:54 Sunny 76 24.4 63 17.2 64 64 SE 9 15 30.01 1016 10 16.0934 0 0
10:54 am 10:54 Sunny 79 26.1 64 17.8 60 60 SE 8 13 30 1016 10 16.0934 0 0
11:54 am 11:54 Sunny 82 27.8 65 18.3 56 56 SE 6 9 29.98 1015 10 16.0934 0 0
12:54 pm 12:54 Sunny 83 28.3 65 18.3 55 55 SE 9 15 29.97 1015 10 16.0934 0 0
1:54 pm 13:54 Sunny 85 29.4 66 18.9 53 53 SE 10 17 29.96 1014 10 16.0934 0 0
2:54 pm 14:54 Sunny 87 30.6 67 19.4 51 51 SSE 8 13 29.95 1014 10 16.0934 0 0
3:54 pm 15:54 Sunny 88 31.1 67 19.4 50 50 SSE 9 15 29.93 1014 10 16.0934 0 0
4:54 pm 16:54 Sunny 88 31.1 67 19.4 50 50 SSE 10 17 29.91 1013 10 16.0934 0 0
5:54 pm 17:54 Sunny 88 31.1 68 20 52 52 SE 12 19 29.91 1013 10 16.0934 0 0
6:54 pm 18:54 Sunny 87 30.6 68 20 53 53 ESE 12 19 29.91 1013 10 16.0934 0 0
7:54 pm 19:54 Sunny 84 28.9 67 19.4 57 57 ESE 16 26 29.91 1013 10 16.0934 0 0
8:54 pm 20:54 Clear 82 27.8 68 20 63 63 ESE 14 22 29.92 1013 10 16.0934 0 0
9:54 pm 21:54 Clear 80 26.7 67 19.4 64 64 SE 12 19 29.93 1014 10 16.0934 0 0
10:54 pm 22:54 Clear 80 26.7 66 18.9 62 62 SSE 17 28 29.94 1014 10 16.0934 0 0
11:54 pm 23:54 Clear 78 25.6 66 18.9 67 67 SSE 14 22 29.95 1014 10 16.0934 0 0

Powered by AerisWeather